sat.trackr.live / text

‹ back to catalog

GLOBALSTAR M096

NORAD 39075 · 2013-005D

PAYLOAD ACTIVE UNKNOWN

§ Identity

Operator
Country
GLOB
Launch date
2013-02-06
Launch site
TYMSC
Launch vehicle
Mass (kg)
RCS (m²)
4.58

Purposes: comms

External: N2YO · Heavens-Above · Gunter

§ Orbital elements

Epoch: 2026-05-25T00:39:52.856640Z

Period
114.08 min
Inclination
52.0081°
Eccentricity
0.0000508
Mean motion
12.62264885 rev/d
Perigee alt
1,413.2 km
Apogee alt
1,414.0 km
Semi-major
7,791.7 km
B*
2.9237e-5
RAAN
270.0960°
Arg perigee
131.7219°
Mean anomaly
228.3691°
Rev number
61,446

§ Raw data

GLOBALSTAR M0961 39075U 13005D   26145.02769510 -.00000099  00000+0  29237-4 0  99962 39075  52.0081 270.0960 0000508 131.7219 228.3691 12.62264885614469

JSON: /api/v1/satellites/39075 · /tle

For live sub-satellite position, see the globe view (requires WebGL).

§ Visibility from observer

Set your observer location to see the next 7 days of passes ≥ 10°. The values pass through the URL so the page stays shareable.

No JS? Fill the form by hand. The geolocation button needs JavaScript.